Sioux Falls, SD

10:17 PM CDT on September 24, 2016 (GMT -0500)
Foss

Weather History for KFSD - December, 2014

Change the Weather History Date:

Friday, December 19, 2014

  Actual Average Record
Temperature  
Mean Temperature 29 °F 18 °F  
Max Temperature 31 °F 27 °F 54 °F (1894)
Min Temperature 27 °F 9 °F -24 °F (1983)
Degree Days  
Heating Degree Days 36 47  
Month to date heating degree days 713 845  
Since 1 July heating degree days 2469 2557  
Cooling Degree Days 0 0  
Month to date cooling degree days 0 0  
Year to date cooling degree days 610 690  
Moisture  
Dew Point 27 °F    
Average Humidity 89    
Maximum Humidity 92    
Minimum Humidity 85    
Precipitation  
Precipitation 0.00 in 0.02 in 0.77 in (1902)
Month to date precipitation 0.81 0.46  
Year to date precipitation 28.75 26.15  
Snow  
Snow 0.00 in 0.30 in 5.40 in (1960)
Month to date snowfall 2.0 5.2  
Since 1 July snowfall 10.3 13.9  
Snow Depth 2.00 in    
Sea Level Pressure  
Sea Level Pressure 30.17 in    
Wind  
Wind Speed 12 mph (South)    
Max Wind Speed 18 mph    
Max Gust Speed 22 mph    
Visibility 8 miles    
Events      
T = Trace of Precipitation, MM = Missing Value Source: NWS Daily Summary

Daily Weather History Graph

Daily Weather History Graph

Search for Another Location

Airport or City:

Trip Planner

Search our weather history database for the weather conditions in past years. The results will help you decide how hot, cold, wet, or windy it might be!

Date:

Astronomy

Dec. 19, 2014 Rise Set
Actual Time 7:55 AM CST 4:52 PM CST
Civil Twilight 7:23 AM CST 5:25 PM CST
Nautical Twilight 6:46 AM CST 6:01 PM CST
Astronomical Twilight 6:11 AM CST 6:36 PM CST
Moon 5:08 AM CST (12/19) 3:19 PM CST (12/19)
Length of Visible Light 10h 02m
Length of Day
8h 56m
Waning Crescent, 7% of the Moon is Illuminated
Dec 19
Waning Crescent
Dec 21
New
Dec 28
First Quarter
Jan 4
Full
Jan 13
Last Quarter

Hourly Weather History & Observations

Time (CST) Temp. Windchill Dew Point Humidity Pressure Visibility Wind Dir Wind Speed Gust Speed Precip Events Conditions
12:56 AM 28.0 °F 20.0 °F 25.0 °F 88% 30.24 in 8.0 mi SSW 8.1 mph - N/A   Overcast
1:56 AM 28.0 °F 20.8 °F 25.0 °F 88% 30.23 in 8.0 mi SSW 6.9 mph - N/A   Overcast
2:32 AM 28.0 °F 20.0 °F 25.0 °F 88% 30.17 in 8.0 mi SSW 8.1 mph - N/A   Overcast
2:56 AM 28.0 °F 19.3 °F 25.0 °F 88% 30.23 in 8.0 mi SSW 9.2 mph - N/A   Overcast
3:56 AM 28.0 °F 20.0 °F 25.0 °F 88% 30.21 in 10.0 mi South 8.1 mph - N/A   Overcast
4:56 AM 28.0 °F 20.0 °F 25.0 °F 88% 30.20 in 10.0 mi South 8.1 mph - N/A   Overcast
5:56 AM 28.0 °F 19.3 °F 25.0 °F 88% 30.21 in 8.0 mi South 9.2 mph - N/A   Overcast
6:56 AM 28.9 °F 19.2 °F 25.0 °F 85% 30.20 in 9.0 mi South 11.5 mph - N/A   Overcast
7:56 AM 28.9 °F 19.8 °F 26.1 °F 89% 30.20 in 8.0 mi South 10.4 mph - N/A   Overcast
8:56 AM 28.9 °F 19.2 °F 26.1 °F 89% 30.21 in 7.0 mi South 11.5 mph - N/A   Overcast
9:56 AM 28.9 °F 17.7 °F 27.0 °F 92% 30.21 in 7.0 mi South 15.0 mph - N/A   Overcast
10:56 AM 30.0 °F 19.5 °F 27.0 °F 88% 30.20 in 7.0 mi South 13.8 mph - N/A   Overcast
11:56 AM 30.0 °F 18.3 °F 27.0 °F 88% 30.19 in 7.0 mi South 17.3 mph 20.7 mph N/A   Overcast
12:56 PM 30.0 °F 18.7 °F 27.0 °F 88% 30.16 in 8.0 mi South 16.1 mph - N/A   Overcast
1:56 PM 30.0 °F 18.7 °F 27.0 °F 88% 30.14 in 7.0 mi South 16.1 mph - N/A   Overcast
2:56 PM 30.0 °F 18.7 °F 28.0 °F 92% 30.14 in 6.0 mi South 16.1 mph - N/A   Overcast
3:56 PM 30.0 °F 20.5 °F 27.0 °F 88% 30.14 in 8.0 mi South 11.5 mph - N/A   Overcast
4:56 PM 30.9 °F 21.2 °F 28.0 °F 89% 30.14 in 8.0 mi South 12.7 mph - N/A   Overcast
5:56 PM 30.9 °F 21.7 °F 28.0 °F 89% 30.14 in 9.0 mi South 11.5 mph - N/A   Overcast
6:56 PM 30.9 °F 21.2 °F 28.0 °F 89% 30.14 in 10.0 mi South 12.7 mph - N/A   Overcast
7:56 PM 30.9 °F 22.2 °F 28.0 °F 89% 30.14 in 10.0 mi SSW 10.4 mph - N/A   Overcast
8:56 PM 30.9 °F 22.2 °F 28.0 °F 89% 30.14 in 9.0 mi South 10.4 mph - N/A   Overcast
9:56 PM 30.9 °F 21.2 °F 28.0 °F 89% 30.12 in 9.0 mi South 12.7 mph - N/A   Overcast
10:56 PM 30.9 °F 22.8 °F 28.0 °F 89% 30.12 in 8.0 mi South 9.2 mph - N/A   Overcast
11:03 PM 30.9 °F 22.8 °F 28.0 °F 89% 30.07 in 8.0 mi SSE 9.2 mph - N/A   Overcast
11:56 PM 30.9 °F 22.2 °F 28.0 °F 89% 30.12 in 8.0 mi SSE 10.4 mph - N/A   Overcast